Flag for U.S.A. Weather past 2 weeks in San Jose, California, U.S.A.

Now
55 °F

Scattered clouds.


Feels Like: 55 °F
Forecast: 50 / 70 °F
Wind: No wind

Location: San Jose International Airport

Current Time: Oct 22, 2014 at 9:19:45 AM

Latest Report: Oct 22, 2014 at 8:53 AM


Visibility: 10 mi

Pressure: 30.07 "Hg

Humidity: 77%

Dew point: 48 °F

Location of San JoseLocation

Historic Weather in San Jose — Graph

°F

San Jose temperature yesterday

Maximum temperature yesterday: 69 °F (at 2:53 PM)
Minimum temperature yesterday: 50 °F (at 4:53 AM)
Average temperature yesterday: 59 °F

Past Weeks' High & Low Weather Summary

 TemperatureHumidityPressure
High87 °F (Oct 12, 2:53 PM)100% (Oct 19, 7:53 AM)30.11 "Hg (Oct 19, 7:53 AM)
Low49 °F (Oct 22, 5:53 AM)12% (Oct 12, 4:53 PM)29.83 "Hg (Oct 7, 4:53 PM)
Average64 °F67%29.95 "Hg
* Reported Oct 7 7:53 AM — Oct 22 7:53 AM, San Jose, Weather by CustomWeather, © 2014

Note: Actual official high and low records may vary slightly from our data, if they occured in-between our weather recording intervals... More about our weather records

Advertising

San Jose weather history for previous 24 hours

 ConditionsComfort  
Time TempWeatherWind HumidityBarometerVisibility
7:53 AM
Oct 22
52 °FPartly cloudy.6 mph83%30.05 "Hg10 mi
6:53 AM51 °FPartly cloudy.3 mph83%30.04 "Hg10 mi
5:53 AM49 °FClear.3 mph86%30.04 "Hg10 mi
4:53 AM51 °FClear.No wind83%30.04 "Hg10 mi
3:53 AM51 °FClear.No wind83%30.04 "Hg10 mi
2:53 AM52 °FClear.No wind80%30.05 "Hg10 mi
1:53 AM53 °FClear.3 mph74%30.05 "Hg10 mi
12:53 AM53 °FClear.No wind77%30.05 "Hg10 mi
11:53 PM
Oct 21
56 °FClear.No wind72%30.05 "Hg10 mi
10:53 PM58 °FPassing clouds.No wind70%30.05 "Hg10 mi
9:53 PM59 °FClear.3 mph69%30.04 "Hg10 mi
8:53 PM59 °FClear.6 mph69%30.04 "Hg10 mi
7:53 PM60 °FClear.7 mph67%30.03 "Hg10 mi
6:53 PM62 °FPassing clouds.9 mph60%30.01 "Hg10 mi
5:53 PM65 °FPassing clouds.20 mph49%30.01 "Hg10 mi
4:53 PM67 °FPassing clouds.14 mph47%30.01 "Hg10 mi
3:53 PM68 °FScattered clouds.15 mph38%30.02 "Hg10 mi
2:53 PM69 °FScattered clouds.9 mph41%30.01 "Hg10 mi
1:53 PM68 °FScattered clouds.8 mph44%30.04 "Hg10 mi
12:53 PM66 °FScattered clouds.5 mph47%30.06 "Hg10 mi
11:53 AM64 °FScattered clouds.6 mph54%30.08 "Hg10 mi
10:53 AM62 °FScattered clouds.5 mph58%30.09 "Hg10 mi
9:53 AM60 °FScattered clouds.8 mph69%30.11 "Hg10 mi
Weather by CustomWeather, © 2014

See weather overviewHow to use our weather pages